Weather History for Linden, NJ

Change the Weather History Date:

Wednesday, March 12, 2014

  Actual Average (KEWR) Record (KEWR)
Temperature  
Mean Temperature 48 °F 41 °F  
Max Temperature 60 °F 49 °F 73 °F (2012)
Min Temperature 36 °F 32 °F 13 °F (1934)
Degree Days  
Heating Degree Days 16 24  
Month to date heating degree days 310  
Since 1 July heating degree days 3945  
Cooling Degree Days 0 0  
Month to date cooling degree days 0  
Year to date cooling degree days 0  
Moisture  
Dew Point 43 °F    
Average Humidity 73    
Maximum Humidity 91    
Minimum Humidity 57    
Precipitation  
Precipitation 0.15 in 0.13 in 2.35 in (1962)
Month to date precipitation 1.50  
Year to date precipitation 7.92  
Snow  
Snow 0.00 in 0.20 in 5.30 in (1959)
Month to date snowfall 2.5  
Since 1 July snowfall 25.5  
Snow Depth -    
Sea Level Pressure  
Sea Level Pressure 29.36 in    
Wind  
Wind Speed 3 mph (East)    
Max Wind Speed 23 mph    
Max Gust Speed 32 mph    
Visibility 9 miles    
Events Rain    
T = Trace of Precipitation, MM = Missing Value Source: NWS Daily Summary

Daily Weather History Graph

Daily Weather History Graph

Search for Another Location

Airport:

Trip Planner

Search our weather history database for the weather conditions in past years. The results will help you decide how hot, cold, wet, or windy it might be!

Date:

Astronomy

Mar. 12, 2014 Rise Set
Actual Time 7:13 AM EDT 7:00 PM EDT
Civil Twilight 6:46 AM EDT 7:27 PM EDT
Nautical Twilight 6:14 AM EDT 7:59 PM EDT
Astronomical Twilight 5:42 AM EDT 8:31 PM EDT
Moon 3:27 PM EDT (3/12) 4:44 AM EDT (3/12)
Length of Visible Light 12h 41m
Length of Day
11h 46m
Waxing Gibbous, 85% of the Moon is Illuminated
Mar 12
Waxing Gibbous
Mar 16
Full
Mar 23
Last Quarter
Mar 30
New
Apr 7
First Quarter

Hourly Weather History & Observations

Time (EDT) Temp. Windchill Dew Point Humidity Pressure Visibility Wind Dir Wind Speed Gust Speed Precip Events Conditions
12:15 AM 52.9 °F - 37.9 °F 57% 29.69 in 10.0 mi Calm Calm - N/A   Clear
12:35 AM 51.8 °F - 38.1 °F 60% 29.69 in 10.0 mi Calm Calm - N/A   Scattered Clouds
12:55 AM 51.1 °F - 37.9 °F 61% 29.69 in 10.0 mi Calm Calm - N/A   Overcast
1:15 AM 50.0 °F - 37.8 °F 63% 29.69 in 10.0 mi Calm Calm - N/A   Scattered Clouds
1:35 AM 50.9 °F - 37.9 °F 61% 29.69 in 10.0 mi Calm Calm - N/A   Scattered Clouds
1:55 AM 50.7 °F - 37.9 °F 62% 29.69 in 10.0 mi Calm Calm - N/A   Clear
2:15 AM 50.4 °F - 37.8 °F 62% 29.69 in 10.0 mi SSE 3.5 mph - N/A   Scattered Clouds
2:35 AM 50.0 °F - 37.8 °F 63% 29.68 in 10.0 mi Calm Calm - N/A   Scattered Clouds
2:55 AM 49.6 °F - 37.4 °F 63% 29.67 in 10.0 mi Calm Calm - N/A   Scattered Clouds
3:15 AM 49.3 °F - 37.4 °F 64% 29.67 in 10.0 mi Calm Calm - N/A   Scattered Clouds
3:35 AM 48.4 °F - 37.4 °F 66% 29.65 in 10.0 mi Calm Calm - N/A   Mostly Cloudy
3:55 AM 48.6 °F - 37.4 °F 65% 29.64 in 10.0 mi Calm Calm - N/A   Mostly Cloudy
4:15 AM 48.9 °F - 37.0 °F 64% 29.63 in 10.0 mi Calm Calm - N/A   Scattered Clouds
4:35 AM 47.7 °F - 37.0 °F 67% 29.62 in 10.0 mi Calm Calm - N/A   Clear
4:55 AM 46.0 °F - 37.4 °F 72% 29.61 in 10.0 mi Calm Calm - N/A   Clear
5:15 AM 46.4 °F - 37.8 °F 72% 29.61 in 10.0 mi Calm Calm - N/A   Clear
5:35 AM 45.3 °F - 36.7 °F 72% 29.60 in 10.0 mi Calm Calm - N/A   Clear
5:55 AM 45.1 °F - 36.9 °F 73% 29.61 in 10.0 mi Calm Calm - N/A   Clear
6:15 AM 46.6 °F - 37.8 °F 71% 29.60 in 10.0 mi Calm Calm - N/A   Clear
6:35 AM 45.5 °F - 37.6 °F 74% 29.58 in 10.0 mi Calm Calm - N/A   Clear
6:55 AM 46.9 °F - 37.9 °F 71% 29.57 in 10.0 mi Calm Calm - N/A   Clear
7:15 AM 46.9 °F - 38.1 °F 71% 29.57 in 10.0 mi SE 3.5 mph - N/A   Clear
7:35 AM 47.8 °F - 38.3 °F 70% 29.57 in 10.0 mi SE 3.5 mph - N/A   Clear
7:55 AM 46.9 °F - 38.3 °F 72% 29.56 in 10.0 mi Calm Calm - N/A   Clear
8:15 AM 49.1 °F - 39.0 °F 68% 29.57 in 10.0 mi East 4.6 mph - N/A   Clear
8:35 AM 48.7 °F - 38.8 °F 69% 29.55 in 10.0 mi East 6.9 mph - N/A   Clear
8:55 AM 49.3 °F - 38.3 °F 66% 29.53 in 10.0 mi East 10.4 mph - N/A   Clear
9:15 AM 50.9 °F - 39.4 °F 65% 29.52 in 10.0 mi East 5.8 mph - N/A   Clear
9:35 AM 52.0 °F - 41.0 °F 66% 29.51 in 10.0 mi East 6.9 mph - N/A   Clear
9:55 AM 53.2 °F - 42.4 °F 67% 29.48 in 10.0 mi ESE 8.1 mph - N/A   Clear
10:15 AM 53.6 °F - 45.7 °F 75% 29.47 in 10.0 mi ESE 9.2 mph - N/A   Clear
10:35 AM 53.6 °F - 45.9 °F 75% 29.45 in 10.0 mi ESE 8.1 mph - N/A   Clear
10:55 AM 54.5 °F - 45.5 °F 72% 29.43 in 7.0 mi SE 4.6 mph - N/A   Scattered Clouds
11:15 AM 54.7 °F - 45.5 °F 71% 29.41 in 10.0 mi ESE 5.8 mph - N/A   Scattered Clouds
11:35 AM 54.7 °F - 45.1 °F 70% 29.39 in 10.0 mi ESE 3.5 mph - N/A   Scattered Clouds
11:55 AM 54.5 °F - 45.0 °F 70% 29.37 in 10.0 mi ESE 3.5 mph - N/A   Mostly Cloudy
12:15 PM 54.7 °F - 45.0 °F 70% 29.34 in 10.0 mi East 3.5 mph - N/A   Overcast
12:35 PM 55.8 °F - 45.3 °F 68% 29.33 in 10.0 mi East 3.5 mph - N/A   Overcast
12:55 PM 55.6 °F - 45.5 °F 69% 29.31 in 10.0 mi East 4.6 mph - N/A   Overcast
1:15 PM 55.8 °F - 45.0 °F 67% 29.28 in 10.0 mi East 5.8 mph - N/A   Mostly Cloudy
1:35 PM 55.8 °F - 44.6 °F 66% 29.27 in 10.0 mi East 6.9 mph - N/A   Scattered Clouds
1:55 PM 55.2 °F - 44.1 °F 66% 29.25 in 10.0 mi East 3.5 mph - N/A   Overcast
2:15 PM 55.4 °F - 44.2 °F 66% 29.21 in 10.0 mi ENE 4.6 mph - N/A   Overcast
2:35 PM 56.3 °F - 44.6 °F 65% 29.21 in 10.0 mi Calm Calm - N/A   Overcast
2:55 PM 56.1 °F - 44.1 °F 64% 29.20 in 10.0 mi NE 3.5 mph - N/A   Overcast
3:15 PM 56.5 °F - 44.1 °F 63% 29.18 in 10.0 mi Calm Calm - N/A   Overcast
3:35 PM 56.7 °F - 44.1 °F 63% 29.16 in 10.0 mi North 5.8 mph - N/A   Overcast
3:55 PM 56.5 °F - 43.9 °F 63% 29.15 in 10.0 mi NNE 3.5 mph - N/A   Overcast
4:15 PM 56.1 °F - 44.1 °F 64% 29.14 in 7.0 mi NE 3.5 mph - N/A   Overcast
4:35 PM 55.4 °F - 45.7 °F 70% 29.13 in 5.0 mi NNE 3.5 mph - N/A Rain Light Rain
4:55 PM 54.0 °F - 46.9 °F 77% 29.12 in 4.0 mi NE 3.5 mph - 0.01 in Rain Light Rain
5:15 PM 54.0 °F - 49.1 °F 84% 29.10 in 4.0 mi Calm Calm - N/A   Light Drizzle
5:35 PM 60.1 °F - 54.7 °F 82% 29.09 in 4.0 mi WSW 9.2 mph - 0.03 in Rain Light Rain
5:55 PM 59.9 °F - 54.9 °F 83% 29.07 in 4.0 mi SW 5.8 mph - 0.04 in Rain Rain
6:15 PM 59.2 °F - 55.4 °F 87% 29.06 in 5.0 mi SSW 8.1 mph - N/A Rain Light Rain
6:35 PM 59.4 °F - 55.6 °F 87% 29.05 in 5.0 mi SSW 4.6 mph - 0.01 in Rain Rain
6:55 PM 59.5 °F - 55.8 °F 87% 29.05 in 7.0 mi WSW 3.5 mph - 0.02 in   Overcast
7:15 PM 59.5 °F - 55.6 °F 87% 29.04 in 7.0 mi WSW 3.5 mph - N/A   Overcast
7:35 PM 59.9 °F - 55.4 °F 85% 29.05 in 7.0 mi West 5.8 mph - N/A   Overcast
7:55 PM 59.9 °F - 55.4 °F 85% 29.06 in 7.0 mi WNW 16.1 mph 23.0 mph 0.01 in Rain Rain
8:15 PM 56.5 °F - 52.5 °F 87% 29.06 in 5.0 mi WNW 9.2 mph 12.7 mph 0.01 in Rain Rain
8:35 PM 55.9 °F - 52.0 °F 87% 29.05 in 7.0 mi West 4.6 mph - 0.01 in   Light Drizzle
8:55 PM 55.8 °F - 52.0 °F 87% 29.06 in 7.0 mi West 5.8 mph - 0.02 in Rain Light Rain
9:15 PM 55.0 °F - 51.8 °F 89% 29.06 in 5.0 mi West 3.5 mph - 0.01 in   Drizzle
9:35 PM 54.9 °F - 52.2 °F 91% 29.06 in 5.0 mi WSW 4.6 mph - 0.03 in Rain Light Rain
9:55 PM 54.7 °F - 52.2 °F 91% 29.03 in 5.0 mi West 3.5 mph - 0.05 in Rain Rain
10:15 PM 54.5 °F - 51.8 °F 91% 29.07 in 7.0 mi WNW 15.0 mph 20.7 mph N/A   Overcast
10:35 PM 49.5 °F - 45.7 °F 87% 29.10 in 7.0 mi NNW 16.1 mph 27.6 mph N/A   Light Drizzle
10:55 PM 43.0 °F 34.0 °F 38.3 °F 84% 29.12 in 10.0 mi NNW 21.9 mph 29.9 mph N/A   Overcast
11:15 PM 39.4 °F 30.7 °F 34.0 °F 81% 29.15 in 10.0 mi NW 16.1 mph 29.9 mph N/A   Overcast
11:35 PM 37.2 °F 26.7 °F 31.3 °F 79% 29.19 in 10.0 mi NW 20.7 mph 31.1 mph N/A   Overcast
11:55 PM 36.5 °F 25.2 °F 29.8 °F 77% 29.21 in 10.0 mi NW 23.0 mph 32.2 mph N/A   Overcast